GFSFLT2_250_spd_009.txt.gz
Wind_Speed
125 129 132 134 133 130 125 118 115 112 111 111 111 110 107 104 102 101 100 100 100 101 101 101 100 100 101
130 131 126 121 113 108 106 105 102 99 98 97 96 93 91 92 94 95 95 93 91 92 91 91 90 90 91
124 115 106 104 99 98 97 93 91 91 88 84 83 83 85 85 84 85 86 85 83 82 81 82 82 83 86
109 99 98 96 93 89 88 88 84 83 78 77 77 77 76 76 77 79 78 78 77 76 76 76 76 77 81
98 96 92 89 86 83 79 78 82 76 75 74 69 67 69 68 68 69 69 68 67 67 68 70 72 72 77
93 86 83 82 79 76 72 71 73 67 69 67 60 61 58 57 57 60 60 58 58 58 60 63 66 72 76
83 80 74 73 72 72 69 64 62 62 62 57 53 50 50 48 49 50 50 48 48 50 51 55 62 69 72
79 73 69 67 66 63 61 59 55 53 52 51 45 43 43 41 39 39 39 38 39 43 46 51 58 60 63
72 68 65 61 57 56 53 52 49 46 43 42 38 34 33 32 31 31 31 31 32 35 38 41 45 51 58
66 60 56 53 49 49 48 44 39 36 34 32 29 25 24 25 25 25 24 25 26 27 30 34 40 47 55
57 52 48 46 43 39 37 34 30 30 27 24 21 18 18 19 20 19 17 20 20 22 25 31 38 45 50
49 45 42 39 35 32 30 27 25 22 21 18 15 13 12 13 13 14 14 16 17 18 20 26 32 38 44
41 38 34 31 29 28 26 23 20 18 15 13 10 8 7 10 11 13 15 17 19 20 22 25 29 32 34
32 29 28 27 25 23 22 20 16 14 12 10 6 4 5 9 12 14 16 18 18 19 22 25 28 30 33
27 26 25 24 23 21 19 16 12 11 9 8 7 3 4 8 12 14 15 17 19 20 21 23 28 32 35
24 24 24 23 21 18 16 13 10 9 8 6 6 5 5 7 11 16 16 16 18 21 23 25 27 29 33
22 21 21 21 20 17 14 12 9 7 5 4 4 5 7 8 11 14 17 18 20 23 28 29 30 31 33

GFSFLT2_250_spd_012.txt.gz
Wind_Speed
115 120 124 126 128 131 134 132 127 126 120 114 109 108 109 110 111 111 110 109 108 107 105 105 103 104 107
122 127 131 131 130 125 118 114 110 106 104 100 98 99 100 98 97 99 99 99 99 98 98 97 95 95 95
128 126 121 117 111 106 104 102 99 96 92 87 86 85 84 83 83 85 86 86 87 88 88 89 88 90 90
120 111 104 99 96 94 94 93 89 84 82 79 79 76 74 74 77 78 77 78 78 80 81 82 81 83 82
102 99 95 92 89 87 82 81 80 73 74 73 71 70 71 70 71 72 73 71 70 71 73 73 72 76 77
93 88 85 82 80 78 74 72 71 64 69 69 63 65 62 62 60 61 62 62 60 61 62 63 64 67 70
84 82 78 74 71 69 66 65 64 62 63 61 54 55 52 50 51 50 49 49 50 50 50 52 54 57 63
80 75 71 69 67 63 61 60 56 53 54 54 47 44 43 43 43 42 42 42 42 43 42 42 45 49 53
72 69 66 63 60 58 56 53 48 46 45 45 42 39 36 37 36 36 36 35 35 36 35 36 38 41 45
66 61 58 55 52 50 48 45 43 38 37 35 33 32 30 30 29 29 27 25 24 26 28 29 32 36 42
59 54 50 46 43 41 40 37 32 31 29 28 26 25 25 27 24 22 18 16 17 18 19 23 27 32 37
50 46 41 39 37 33 31 28 28 25 22 21 20 21 21 21 18 17 13 12 13 11 13 17 24 31 36
42 39 33 30 29 27 24 23 20 19 18 16 15 17 18 16 14 12 9 7 7 8 12 15 18 25 34
36 31 28 25 23 22 19 18 18 16 15 13 12 11 12 13 11 8 5 4 7 10 13 17 19 21 28
30 26 23 20 19 18 17 16 15 15 14 13 11 9 9 9 9 7 5 4 7 11 15 19 23 27 27
27 24 21 20 18 16 17 16 15 13 12 11 10 8 9 7 7 7 4 6 9 12 16 21 24 28 33
25 22 20 19 18 16 16 16 14 12 9 8 6 6 9 8 6 6 6 6 9 12 16 19 25 29 32

GFSFLT2_250_spd_015.txt.gz
Wind_Speed
113 118 121 124 125 126 126 125 124 124 123 121 116 113 110 110 109 109 109 109 109 108 107 108 110 111 112
122 124 126 130 126 120 116 111 107 105 106 104 101 100 102 103 102 101 101 100 101 103 103 101 101 101 101
127 123 116 112 106 103 101 100 98 97 96 93 90 90 92 93 91 91 90 90 89 89 91 90 91 91 91
115 108 104 100 97 93 93 92 87 87 82 79 79 80 78 76 78 80 80 78 79 80 81 83 83 82 82
103 101 96 91 88 85 80 79 77 72 72 75 70 69 68 70 71 70 71 72 71 72 73 74 75 76 77
96 92 89 82 79 75 71 70 70 62 68 69 61 64 62 62 61 63 62 62 62 61 62 64 67 69 69
88 86 82 77 73 70 65 62 59 59 61 56 55 54 54 54 54 52 51 52 52 51 52 53 56 59 60
82 78 74 70 66 62 60 55 49 50 53 48 48 45 44 44 42 41 43 42 43 43 44 44 47 50 53
75 72 67 63 60 59 54 51 45 43 43 41 39 35 35 36 34 36 35 36 37 37 37 38 40 44 47
66 63 60 57 53 51 50 46 41 38 36 36 34 33 28 32 28 29 28 29 29 30 32 34 35 37 40
61 57 53 50 47 44 42 42 38 33 33 30 27 27 24 26 21 21 21 20 21 23 27 29 30 32 34
55 50 47 44 42 40 38 36 33 32 29 25 22 22 22 20 20 17 15 14 14 17 21 24 26 28 29
47 45 42 38 37 35 33 32 30 25 23 21 18 17 19 19 17 13 11 10 10 12 15 18 20 23 26
42 40 37 35 33 31 29 24 24 22 20 20 17 15 15 16 15 10 7 5 5 6 9 11 15 19 22
40 38 37 34 30 27 26 23 20 19 17 17 16 14 14 13 12 7 4 1 2 4 6 10 14 20 23
39 36 32 30 26 24 23 21 18 14 13 14 14 12 11 10 10 6 4 2 4 7 8 11 14 20 25
34 32 30 26 22 20 19 19 17 14 12 11 11 10 9 9 9 5 5 5 6 11 11 14 17 21 27

GFSFLT2_250_spd_021.txt.gz
Wind_Speed
107 114 120 122 126 129 124 116 112 109 106 104 103 102 101 101 102 103 104 104 104 105 105 106 106 108 111
114 120 126 130 130 122 113 107 100 98 97 97 96 93 93 94 94 95 95 95 95 95 95 96 96 96 98
122 127 131 128 116 111 101 96 92 88 87 87 81 82 85 85 85 83 84 83 82 82 83 85 86 87 90
129 131 122 113 103 94 92 88 81 82 82 77 75 76 73 75 78 77 75 75 74 73 74 75 76 78 79
128 116 106 98 93 88 83 82 76 74 77 68 68 66 64 65 67 71 70 67 64 65 66 68 69 71 72
112 101 96 92 89 85 81 76 74 62 69 62 61 57 56 58 59 58 58 56 56 57 58 60 62 65 67
102 95 93 86 83 81 76 69 59 55 60 58 55 47 47 47 50 51 50 49 50 51 52 54 56 60 62
98 92 84 80 76 72 68 65 55 47 51 50 52 43 45 40 40 40 42 44 44 44 46 47 48 51 54
91 83 78 71 66 63 59 55 53 44 45 42 43 39 41 37 35 33 34 37 39 39 40 42 43 44 46
82 76 68 62 56 53 52 51 48 45 42 38 36 38 28 30 30 29 30 31 34 34 35 36 37 39 41
74 68 61 53 48 45 46 45 47 39 38 39 34 30 31 28 28 26 27 28 28 30 32 33 34 36 37
65 59 54 48 44 40 42 40 39 37 36 33 32 30 27 28 27 25 25 25 25 26 26 27 28 30 31
59 52 47 45 44 39 35 35 34 34 29 30 29 28 26 26 24 23 21 21 22 21 21 21 20 22 23
53 46 43 40 38 37 33 31 28 28 28 26 25 23 23 22 19 17 18 17 18 18 18 16 14 14 16
48 44 38 37 33 34 29 26 27 22 21 22 20 20 20 17 14 13 15 14 15 15 11 10 12 11 11
40 40 38 35 30 27 27 24 21 23 19 18 17 17 18 13 10 10 12 12 12 9 9 10 8 4 4
41 40 36 33 30 25 23 22 20 19 16 15 14 13 13 9 5 8 8 8 7 7 6 3 2 2 6